This demonstration page uses our WeatherBlox Daily Observations layout. Learn more.

Left ArrowRight Arrow

39.92423, -83.80882

Hourly Observations for February 23, 2019

Temp ( °F °C ) Dew Point ( °F °C ) Humidity (%) Winds ( mph kmh ) Pressure ( in mb ) Visibility ( mi km ) Precip ( " mm )
12:56 am 00:56 Clear 34 1.1 29 -1.7 82 82 E 13 20 30.27 1025 8 12.87472 N/A
1:56 am 01:56 Clear 34 1.1 29 -1.7 82 82 E 12 19 30.28 1025 9 14.48406 N/A
2:56 am 02:56 Mostly Clear 34 1.1 29 -1.7 82 82 E 12 19 30.25 1024 10 16.0934 N/A
3:56 am 03:56 Mostly Clear 34 1.1 29 -1.7 82 82 E 12 19 30.21 1023 10 16.0934 N/A
4:56 am 04:56 Cloudy 35 1.7 29 -1.7 78 78 E 14 22 30.19 1022 10 16.0934 N/A
5:56 am 05:56 Cloudy 35 1.7 29 -1.7 78 78 E 14 22 30.17 1022 10 16.0934 N/A
6:56 am 06:56 Cloudy 35 1.7 29 -1.7 78 78 E 10 17 30.16 1022 10 16.0934 N/A
7:56 am 07:56 Cloudy 35 1.7 30 -1.1 82 82 E 12 19 30.15 1021 10 16.0934 N/A
8:56 am 08:56 Cloudy 36 2.2 30 -1.1 79 79 ESE 13 20 30.14 1021 10 16.0934 N/A
9:20 am 09:20 Cloudy 37 3 30 -1 75 75 ESE 13 20 30.14 1021 10 16.0934 N/A
9:56 am 09:56 Cloudy 38 3.3 32 undefined 79 79 ESE 12 19 30.1 1019 10 16.0934 N/A
10:28 am 10:28 Cloudy 39 4 34 1 81 81 ESE 10 17 30.1 1019 10 16.0934 N/A
10:53 am 10:53 Cloudy 39 4 34 1 81 81 ESE 12 19 30.1 1019 10 16.0934 N/A
10:56 am 10:56 Cloudy 40 4.4 34 1.1 79 79 ESE 12 19 30.09 1019 10 16.0934 N/A
11:03 am 11:03 Cloudy 41 5 36 2 81 81 ESE 15 24 30.09 1019 10 16.0934 N/A
11:56 am 11:56 Cloudy 42 5.6 37 2.8 82 82 ESE 12 19 30.06 1018 10 16.0934 N/A
12:56 pm 12:56 Cloudy with Light Rain 42 5.6 41 5 96 96 SE 10 17 30.02 1017 9 14.48406 N/A
1:56 pm 13:56 Cloudy 44 6.7 41 5 89 89 SSE 9 15 29.98 1015 10 16.0934 N/A
2:18 pm 14:18 Cloudy 45 7 41 5 87 87 SE 8 13 29.95 1014 10 16.0934 N/A
2:56 pm 14:56 Cloudy 46 7.8 43 6.1 89 89 ESE 10 17 29.94 1014 10 16.0934 N/A
3:56 pm 15:56 Cloudy with Light Rain 47 8.3 47 8.3 100 100 SSE 9 15 29.93 1014 6 9.65604 N/A
4:56 pm 16:56 Cloudy 47 8.3 47 8.3 100 100 SE 10 17 29.9 1013 9 14.48406 0.01 0.254
5:27 pm 17:27 Cloudy 46 8 46 8 100 100 ESE 12 19 29.88 1012 9 14.48406 N/A
5:56 pm 17:56 Cloudy 47 8.3 47 8.3 100 100 SE 10 17 29.88 1012 9 14.48406 N/A
6:51 pm 18:51 Cloudy with Light Rain 48 9 48 9 100 100 SE 12 19 29.87 1011 10 16.0934 N/A
6:56 pm 18:56 Cloudy with Light Rain 48 8.9 48 8.9 100 100 SE 13 20 29.86 1011 10 16.0934 N/A
7:56 pm 19:56 Cloudy with Light Rain 50 10 50 10 100 100 S 14 22 29.81 1009 10 16.0934 N/A
8:56 pm 20:56 Cloudy 52 11.1 52 11.1 100 100 S 18 30 29.68 1005 10 16.0934 0.02 0.508
9:56 pm 21:56 Cloudy with Light Rain 53 11.7 52 11.1 96 96 S 17 28 29.67 1005 10 16.0934 N/A
10:56 pm 22:56 Cloudy with Rain 53 11.7 53 11.7 100 100 S 16 26 29.66 1005 8 12.87472 0.08 2.032
11:56 pm 23:56 Cloudy with Rain 53 11.7 53 11.7 100 100 S 14 22 29.6 1002 10 16.0934 0.07 1.778

Powered by AerisWeather